1519275600.2,53065,9.69,72672.3,-13.79,-40.15,-40.35,0,*6B
1519275601.47,53066,9.69,72672.3,-13.81,-40.21,-40.41,0,*6B
1519275602.74,53067,9.69,72668.5,-13.81,-40.21,-40.41,0,*6A
1519275603.99,53068,9.69,72670.0,-13.79,-40.15,-40.35,0,*66
1519275605.23,53069,9.69,72670.5,-13.79,-40.03,-40.35,0,*60
1519275606.46,53070,9.69,72672.3,-13.81,-40.21,-40.47,0,*6A
1519275607.74,53071,9.69,72674.5,-13.81,-40.09,-40.41,0,*67
1519275609.01,53072,9.69,72672.5,-13.81,-40.29,-40.41,0,*66
1519275610.27,53073,9.69,72672.5,-13.81,-40.21,-40.41,0,*6F
1519275611.52,53074,9.69,72672.3,-13.81,-40.03,-40.21,0,*6E
1519275612.75,53075,9.69,72672.0,-13.81,-40.21,-40.47,0,*6F
1519275614.04,53076,9.69,72674.5,-13.79,-40.21,-40.41,0,*6D
1519275615.32,53077,9.63,72668.8,-13.81,-40.09,-40.41,0,*61
1519275616.56,53078,9.69,72674.3,-13.81,-40.03,-40.29,0,*6A
1519275617.84,53079,9.69,72672.3,-13.81,-40.09,-40.21,0,*69
1519275619.08,53080,9.69,72672.3,-13.81,-40.03,-40.21,0,*65
1519275620.32,53081,9.69,72672.0,-13.81,-40.03,-40.21,0,*64
1519275621.57,53082,9.69,72674.3,-13.81,-40.03,-40.21,0,*67
1519275622.81,53083,9.69,72672.0,-13.81,-40.03,-40.21,0,*66
1519275624.08,53084,9.69,72672.3,-13.81,-40.09,-40.21,0,*6B
1519275625.33,53085,9.69,72674.8,-13.81,-40.03,-40.29,0,*68
1519275626.6,53086,9.69,72672.3,-13.81,-40.09,-40.21,0,*69
1519275627.85,53087,9.69,72670.0,-13.81,-40.03,-40.21,0,*62
1519275629.06,53088,9.69,72674.5,-13.81,-39.85,-40.03,0,*6D
1519275630.34,53089,9.69,72676.0,-13.81,-40.09,-40.29,0,*6E
1519275631.6,53090,9.69,72674.3,-13.81,-40.21,-40.29,0,*6C
1519275632.85,53091,9.69,72676.0,-13.81,-39.71,-39.85,0,*6E
1519275634.07,53092,9.63,72672.0,-13.81,-39.91,-40.03,0,*63
1519275635.37,53093,9.69,72674.0,-13.79,-39.79,-39.97,0,*60
1519275636.61,53094,9.63,72672.5,-13.81,-40.03,-40.21,0,*60
1519275637.86,53095,9.69,72672.5,-13.81,-40.09,-40.47,0,*6B
1519275639.1,53096,9.69,72676.0,-13.81,-40.03,-40.09,0,*68
1519275640.38,53097,9.69,72674.0,-13.81,-40.09,-40.21,0,*69
1519275641.62,53098,9.69,72672.3,-13.81,-40.03,-40.29,0,*64
1519275642.87,53099,9.69,72674.3,-13.81,-40.03,-40.09,0,*67
1519275644.16,53100,9.63,72668.5,-13.79,-39.97,-40.21,0,*68
1519275645.4,53101,9.69,72674.3,-13.81,-40.03,-40.09,0,*67
1519275646.67,53102,9.69,72674.0,-13.81,-40.09,-40.29,0,*6C
1519275647.94,53103,9.69,72672.3,-13.81,-40.29,-40.41,0,*61
1519275649.16,53104,9.69,72670.5,-13.81,-40.03,-40.03,0,*68
1519275650.37,53105,9.69,72674.3,-13.81,-40.03,-40.03,0,*69
1519275651.67,53106,9.69,72672.3,-13.83,-40.09,-40.29,0,*6A
1519275652.95,53107,9.69,72670.3,-13.81,-40.09,-40.41,0,*67
1519275654.19,53108,9.69,72674.5,-13.83,-40.03,-40.03,0,*66
1519275655.46,53109,9.69,72672.8,-13.83,-39.91,-40.09,0,*68
1519275656.73,53110,9.69,72672.8,-13.83,-40.03,-40.21,0,*6F
1519275658.0,53111,9.69,72676.5,-13.83,-39.91,-40.09,0,*61
1519275659.26,53112,9.69,72672.3,-13.81,-39.91,-40.09,0,*60
1519275660.5,53113,9.69,72676.5,-13.81,-40.03,-40.29,0,*66
1519275661.75,53114,9.69,72672.0,-13.81,-40.03,-40.09,0,*63
1519275662.99,53115,9.69,72672.3,-13.81,-40.03,-40.09,0,*62
1519275664.23,53116,9.63,72668.8,-13.83,-40.03,-40.03,0,*69
1519275665.5,53117,9.69,72672.0,-13.83,-40.03,-40.09,0,*62
1519275666.8,53118,9.69,72672.3,-13.83,-40.09,-40.29,0,*65
1519275668.07,53119,9.63,72670.8,-13.81,-40.09,-40.29,0,*66
1519275669.36,53120,9.69,72670.5,-13.83,-40.09,-40.29,0,*6E
1519275670.63,53121,9.69,72672.0,-13.79,-39.97,-40.15,0,*6C
1519275671.87,53122,9.69,72672.3,-13.81,-40.03,-40.21,0,*6C
1519275673.14,53123,9.69,72674.0,-13.83,-40.03,-40.21,0,*6F
1519275674.41,53124,9.69,72672.3,-13.81,-40.09,-40.21,0,*60
1519275675.69,53125,9.69,72674.3,-13.81,-40.09,-40.29,0,*69
1519275676.92,53126,9.63,72670.8,-13.81,-40.29,-40.47,0,*60
1519275678.18,53127,9.69,72668.5,-13.83,-40.21,-40.47,0,*6B
1519275679.47,53128,9.69,72674.3,-13.83,-40.21,-40.41,0,*62
1519275680.77,53129,9.63,72670.5,-13.83,-40.09,-40.21,0,*6F
1519275682.04,53130,9.69,72672.5,-13.83,-40.03,-40.21,0,*6D
1519275683.31,53131,9.69,72676.0,-13.81,-40.09,-40.41,0,*62
1519275684.56,53132,9.69,72676.3,-13.81,-40.03,-40.21,0,*6D
1519275685.81,53133,9.63,72672.5,-13.85,-40.09,-40.15,0,*65
1519275687.06,53134,9.69,72674.5,-13.85,-40.15,-40.29,0,*60
1519275688.31,53135,9.69,72674.5,-13.81,-39.91,-40.09,0,*65
1519275689.56,53136,9.69,72674.8,-13.81,-40.03,-40.41,0,*6F
1519275690.85,53137,9.69,72672.5,-13.83,-40.21,-40.41,0,*6C
1519275692.15,53138,9.69,72672.0,-13.83,-40.09,-40.29,0,*67
1519275693.41,53139,9.69,72672.8,-13.83,-40.03,-40.29,0,*6C
1519275694.69,53140,9.69,72674.3,-13.85,-40.09,-40.29,0,*6E
1519275695.96,53141,9.69,72674.0,-13.85,-40.09,-40.29,0,*6F
1519275697.22,53142,9.69,72672.0,-13.83,-40.03,-40.29,0,*60
1519275698.52,53143,9.69,72674.5,-13.83,-40.09,-40.29,0,*6B
1519275699.74,53144,9.69,72672.8,-13.85,-40.35,-40.47,0,*6D
1519275701.0,53145,9.69,72674.0,-13.83,-40.03,-40.21,0,*6F
1519275702.3,53146,9.69,72674.5,-13.83,-40.09,-40.29,0,*6E
1519275703.57,53147,9.69,72674.0,-13.83,-40.03,-40.21,0,*6D
1519275704.83,53148,9.69,72672.3,-13.83,-40.03,-40.29,0,*6A
1519275706.13,53149,9.69,72672.3,-13.83,-40.09,-40.41,0,*6F
1519275707.4,53150,9.69,72674.3,-13.83,-40.03,-40.29,0,*63
1519275708.67,53151,9.69,72674.8,-13.83,-40.03,-40.21,0,*6A
1519275709.96,53152,9.69,72674.3,-13.83,-40.09,-40.21,0,*63
1519275711.23,53153,9.69,72674.0,-13.85,-39.97,-40.29,0,*65
1519275712.47,53154,9.63,72668.3,-13.85,-39.97,-40.15,0,*6D
1519275713.74,53155,9.63,72674.3,-13.83,-40.09,-40.47,0,*64
1519275715.04,53156,9.69,72672.8,-13.83,-40.09,-40.41,0,*61
1519275716.34,53157,9.63,72670.8,-13.83,-40.29,-40.41,0,*62
1519275717.61,53158,9.69,72672.5,-13.85,-40.09,-40.29,0,*67
1519275718.9,53159,9.69,72674.0,-13.83,-40.09,-40.21,0,*68
1519275720.14,53160,9.69,72670.3,-13.85,-40.29,-40.35,0,*63
1519275721.43,53161,9.69,72674.5,-13.83,-40.21,-40.41,0,*6F
1519275722.69,53162,9.69,72674.0,-13.83,-40.29,-40.47,0,*62
1519275723.94,53163,9.69,72674.5,-13.85,-40.29,-40.53,0,*60
1519275725.17,53164,9.69,72676.8,-13.85,-40.29,-40.47,0,*62
1519275726.44,53165,9.69,72672.0,-13.83,-40.03,-40.09,0,*67
1519275727.71,53166,9.69,72672.5,-13.83,-40.09,-40.35,0,*61
1519275728.99,53167,9.63,72672.0,-13.85,-40.09,-40.29,0,*6B
1519275730.26,53168,9.69,72674.8,-13.85,-39.97,-40.09,0,*6F
1519275731.5,53169,9.69,72678.0,-13.85,-40.29,-40.53,0,*6A
1519275732.76,53170,9.63,72674.8,-13.83,-40.03,-40.29,0,*61
1519275734.03,53171,9.69,72674.5,-13.83,-40.03,-40.21,0,*68
1519275735.3,53172,9.63,72672.0,-13.83,-40.03,-40.21,0,*6B
1519275736.57,53173,9.69,72678.5,-13.85,-39.97,-40.09,0,*65
1519275737.83,53174,9.69,72676.0,-13.85,-39.97,-39.97,0,*6B
1519275739.1,53175,9.63,72668.8,-13.83,-40.03,-40.29,0,*64
1519275740.37,53176,9.69,72674.0,-13.83,-40.03,-40.21,0,*6F
1519275741.61,53177,9.69,72676.8,-13.85,-40.09,-40.15,0,*65
1519275742.87,53178,9.69,72672.0,-13.85,-40.15,-40.29,0,*68
1519275744.17,53179,9.69,72676.5,-13.83,-40.09,-40.41,0,*6C
1519275745.46,53180,9.69,72672.8,-13.83,-40.21,-40.41,0,*60
1519275746.72,53181,9.69,72678.5,-13.83,-40.03,-40.21,0,*67
1519275748.02,53182,9.63,72672.8,-13.83,-40.09,-40.29,0,*66
1519275749.31,53183,9.69,72676.0,-13.83,-40.21,-40.29,0,*6D
1519275750.6,53184,9.69,72674.0,-13.83,-40.29,-40.41,0,*6C
1519275751.85,53185,9.69,72674.3,-13.85,-40.09,-40.35,0,*6A
1519275753.08,53186,9.69,72674.3,-13.85,-40.29,-40.47,0,*6E
1519275754.37,53187,9.69,72674.5,-13.83,-40.29,-40.41,0,*6F
1519275755.6,53188,9.69,72670.5,-13.85,-40.15,-40.47,0,*6F
1519275756.85,53189,9.63,72670.0,-13.85,-40.09,-40.35,0,*66
1519275758.09,53190,9.69,72674.8,-13.85,-40.29,-40.47,0,*69
1519275759.34,53191,9.63,72668.5,-13.85,-40.15,-40.29,0,*6F
1519275760.56,53192,9.63,72668.5,-13.85,-40.35,-40.53,0,*63
1519275761.8,53193,9.69,72672.8,-13.85,-40.29,-40.53,0,*6F
1519275763.02,53194,9.69,72672.0,-13.85,-40.15,-40.47,0,*62
1519275764.25,53195,9.69,72672.0,-13.85,-40.15,-40.47,0,*63
1519275765.49,53196,9.63,72672.5,-13.85,-40.29,-40.53,0,*6A
1519275766.73,53197,9.69,72674.5,-13.85,-40.29,-40.47,0,*6E
1519275767.98,53198,9.69,72672.3,-13.87,-40.15,-40.47,0,*6C
1519275769.24,53199,9.69,72676.0,-13.87,-40.29,-40.35,0,*67
1519275770.54,53200,9.69,72674.0,-13.87,-40.09,-40.29,0,*6B
1519275771.79,53201,9.63,72672.8,-13.87,-40.15,-40.35,0,*6A
1519275773.02,53202,9.69,72674.3,-13.85,-40.29,-40.35,0,*64
1519275774.28,53203,9.69,72672.0,-13.87,-40.29,-40.47,0,*62
1519275775.55,53204,9.69,72672.5,-13.87,-40.29,-40.47,0,*65
1519275776.79,53205,9.69,72670.8,-13.87,-40.15,-40.47,0,*6B
1519275778.04,53206,9.69,72672.3,-13.87,-40.15,-40.47,0,*68
1519275779.31,53207,9.69,72672.0,-13.87,-40.29,-40.47,0,*66
1519275780.56,53208,9.69,72672.0,-13.87,-40.15,-40.47,0,*66
1519275781.82,53209,9.69,72674.3,-13.87,-40.29,-40.47,0,*68
1519275783.09,53210,9.69,72672.3,-13.89,-40.41,-40.59,0,*6F
1519275784.36,53211,9.63,72672.0,-13.87,-40.29,-40.53,0,*64
1519275785.66,53212,9.69,72676.0,-13.87,-40.09,-40.29,0,*68
1519275786.92,53213,9.69,72676.3,-13.87,-40.29,-40.53,0,*66
1519275788.18,53214,9.63,72674.0,-13.87,-40.29,-40.47,0,*64
1519275789.4,53215,9.69,72678.3,-13.89,-40.35,-40.35,0,*63
1519275790.67,53216,9.69,72678.0,-13.87,-40.09,-40.35,0,*61
1519275791.94,53217,9.69,72676.8,-13.89,-40.21,-40.41,0,*67
1519275793.21,53218,9.69,72676.0,-13.87,-40.29,-40.53,0,*6D
1519275794.49,53219,9.69,72676.5,-13.89,-40.41,-40.59,0,*66
1519275795.73,53220,9.69,72678.3,-13.87,-40.35,-40.53,0,*6B
1519275796.95,53221,9.69,72674.3,-13.89,-40.35,-40.47,0,*61
1519275798.2,53222,9.69,72674.3,-13.87,-40.15,-40.35,0,*6B
1519275799.45,53223,9.69,72674.3,-13.87,-40.15,-40.35,0,*6A
1519275800.67,53224,9.69,72674.3,-13.89,-40.35,-40.53,0,*61
1519275801.92,53225,9.69,72672.0,-13.87,-40.15,-40.47,0,*69
1519275803.17,53226,9.69,72678.0,-13.89,-40.15,-40.21,0,*64
1519275804.44,53227,9.63,72670.8,-13.89,-40.21,-40.41,0,*64
1519275805.68,53228,9.63,72670.3,-13.89,-40.21,-40.35,0,*68
1519275806.93,53229,9.69,72672.5,-13.89,-39.97,-40.03,0,*6F
1519275808.19,53230,9.69,72676.0,-13.89,-40.15,-40.41,0,*65
1519275809.44,53231,9.69,72674.8,-13.89,-40.15,-40.21,0,*62
1519275810.71,53232,9.69,72672.8,-13.87,-40.09,-40.15,0,*65
1519275811.95,53233,9.69,72674.5,-13.89,-40.15,-40.15,0,*67
1519275813.18,53234,9.63,72672.0,-13.89,-40.21,-40.35,0,*65
1519275814.42,53235,9.63,72674.0,-13.89,-40.21,-40.35,0,*64
1519275815.72,53236,9.63,72672.5,-13.87,-40.09,-40.09,0,*6C
1519275816.99,53237,9.63,72670.8,-13.87,-40.09,-40.15,0,*60
1519275818.27,53238,9.69,72674.3,-13.87,-40.09,-40.15,0,*6F
1519275819.54,53239,9.69,72674.0,-13.87,-40.15,-40.29,0,*6C
1519275820.8,53240,9.69,72674.0,-13.89,-40.15,-40.41,0,*62
1519275822.02,53241,9.69,72674.8,-13.89,-40.03,-40.03,0,*62
1519275823.32,53242,9.69,72672.5,-13.87,-40.09,-40.29,0,*6D
1519275824.55,53243,9.63,72674.3,-13.89,-40.15,-40.35,0,*62
1519275825.81,53244,9.69,72674.3,-13.89,-40.15,-40.41,0,*66
1519275827.04,53245,9.63,72668.5,-13.89,-40.15,-40.35,0,*64
1519275828.28,53246,9.63,72668.8,-13.87,-40.15,-40.47,0,*6C
1519275829.52,53247,9.69,72672.5,-13.89,-40.15,-40.35,0,*66
1519275830.81,53248,9.69,72674.0,-13.87,-40.09,-40.29,0,*67
1519275832.07,53249,9.69,72672.3,-13.89,-40.15,-40.29,0,*65
1519275833.34,53250,9.63,72672.5,-13.87,-40.09,-40.15,0,*61
1519275834.61,53251,9.69,72676.8,-13.89,-40.21,-40.41,0,*65
1519275835.84,53252,9.69,72672.3,-13.89,-40.15,-40.35,0,*62
1519275837.1,53253,9.63,72672.0,-13.89,-40.15,-40.41,0,*60
1519275838.35,53254,9.69,72678.3,-13.87,-40.15,-40.47,0,*6F
1519275839.64,53255,9.69,72676.0,-13.87,-40.09,-40.29,0,*6B
1519275840.91,53256,9.69,72676.3,-13.87,-40.09,-40.35,0,*65
1519275842.16,53257,9.63,72672.3,-13.89,-40.35,-40.41,0,*66
1519275843.42,53258,9.69,72672.8,-13.87,-40.29,-40.35,0,*69
1519275844.67,53259,9.63,72672.5,-13.89,-40.21,-40.53,0,*6E
1519275845.93,53260,9.69,72672.8,-13.89,-40.15,-40.41,0,*60
1519275847.2,53261,9.69,72672.8,-13.89,-40.21,-40.59,0,*6F
1519275848.45,53262,9.63,72672.5,-13.87,-40.15,-40.35,0,*6F
1519275849.69,53263,9.63,72674.0,-13.89,-40.21,-40.53,0,*67
1519275850.97,53264,9.63,72672.0,-13.89,-40.41,-40.59,0,*6C
1519275852.21,53265,9.63,72670.8,-13.89,-40.53,-40.59,0,*6E
1519275853.47,53266,9.69,72674.3,-13.87,-40.15,-40.53,0,*6B
1519275854.69,53267,9.69,72674.8,-13.89,-40.35,-40.53,0,*66
1519275855.94,53268,9.63,72672.0,-13.89,-40.53,-40.59,0,*63
1519275857.2,53269,9.69,72676.0,-13.89,-40.21,-40.59,0,*67
1519275858.43,53270,9.63,72672.5,-13.89,-40.35,-40.53,0,*60
1519275859.71,53271,9.69,72678.5,-13.89,-40.41,-40.59,0,*68
1519275860.99,53272,9.63,72674.5,-13.91,-40.15,-40.41,0,*6A
1519275862.26,53273,9.63,72674.8,-13.91,-40.41,-40.53,0,*69
1519275863.52,53274,9.69,72676.5,-13.91,-40.15,-40.53,0,*6F
1519275864.82,53275,9.69,72676.0,-13.91,-40.41,-40.59,0,*65
1519275866.09,53276,9.69,72678.8,-13.91,-40.41,-40.53,0,*6C
1519275867.32,53277,9.63,72674.3,-13.93,-40.21,-40.35,0,*69
1519275868.61,53278,9.63,72674.0,-13.91,-40.21,-40.41,0,*67
1519275869.89,53279,9.63,72672.8,-13.91,-40.15,-40.41,0,*61
1519275871.14,53280,9.69,72676.5,-13.93,-40.41,-40.53,0,*67
1519275872.39,53281,9.69,72678.5,-13.91,-40.15,-40.35,0,*65
1519275873.67,53282,9.69,72676.0,-13.91,-40.15,-40.41,0,*65
1519275874.94,53283,9.69,72678.8,-13.91,-40.21,-40.53,0,*60
1519275876.15,53284,9.63,72674.5,-13.93,-40.35,-40.53,0,*60
1519275877.44,53285,9.69,72680.3,-13.91,-40.21,-40.41,0,*65
1519275878.68,53286,9.69,72676.8,-13.93,-40.21,-40.35,0,*67
1519275879.9,53287,9.63,72672.0,-13.93,-40.15,-40.35,0,*61
1519275881.14,53288,9.69,72678.0,-13.91,-40.03,-40.15,0,*69
1519275882.37,53289,9.69,72678.8,-13.93,-40.15,-40.35,0,*6F
1519275883.6,53290,9.69,72674.3,-13.93,-39.97,-40.03,0,*66
1519275884.87,53291,9.69,72674.5,-13.93,-40.21,-40.59,0,*6B
1519275886.08,53292,9.69,72674.8,-13.93,-40.35,-40.53,0,*67
1519275887.34,53293,9.63,72674.0,-13.93,-40.15,-40.41,0,*67
1519275888.6,53294,9.63,72672.3,-13.93,-40.21,-40.41,0,*67
1519275889.84,53295,9.69,72678.0,-13.93,-40.03,-40.21,0,*60
1519275891.07,53296,9.63,72672.0,-13.93,-40.15,-40.35,0,*61
1519275892.29,53297,9.69,72674.3,-13.93,-40.15,-40.35,0,*60
1519275893.55,53298,9.69,72678.0,-13.91,-40.21,-40.35,0,*6A
1519275894.81,53299,9.69,72676.8,-13.93,-40.21,-40.41,0,*6A
1519275896.1,53300,9.63,72676.3,-13.91,-40.15,-40.41,0,*6E
1519275897.34,53301,9.69,72680.3,-13.93,-40.35,-40.59,0,*66
1519275898.59,53302,9.63,72672.0,-13.93,-40.41,-40.53,0,*6C
1519275899.83,53303,9.63,72672.5,-13.93,-40.35,-40.59,0,*64
1519275901.07,53304,9.69,72676.0,-13.93,-40.35,-40.59,0,*63
1519275902.33,53305,9.69,72678.5,-13.93,-40.15,-40.41,0,*69
1519275903.55,53306,9.63,72672.0,-13.93,-40.15,-40.35,0,*69
1519275904.8,53307,9.63,72674.5,-13.91,-40.15,-40.15,0,*68
1519275906.03,53308,9.63,72672.5,-13.93,-40.15,-40.35,0,*67
1519275907.25,53309,9.63,72674.3,-13.93,-40.15,-40.35,0,*66
1519275908.51,53310,9.69,72678.5,-13.93,-40.15,-40.41,0,*6D
1519275909.72,53311,9.69,72678.3,-13.93,-40.03,-40.15,0,*6A
1519275910.99,53312,9.63,72676.3,-13.93,-40.21,-40.41,0,*68
1519275912.2,53313,9.69,72676.8,-13.93,-40.03,-40.15,0,*68
1519275913.46,53314,9.69,72676.5,-13.93,-40.15,-40.41,0,*69
1519275914.68,53315,9.69,72676.5,-13.93,-40.15,-40.35,0,*6B
1519275915.95,53316,9.69,72678.5,-13.93,-40.21,-40.59,0,*65
1519275917.2,53317,9.63,72674.3,-13.95,-40.21,-40.47,0,*6D
1519275918.47,53318,9.63,72672.3,-13.95,-40.29,-40.47,0,*6A
1519275919.76,53319,9.63,72674.3,-13.95,-40.09,-40.21,0,*69
1519275921.05,53320,9.63,72670.5,-13.91,-40.21,-40.41,0,*6B
1519275922.29,53321,9.69,72678.8,-13.93,-40.21,-40.35,0,*6B
1519275923.54,53322,9.69,72678.8,-13.93,-40.15,-40.41,0,*6C
1519275924.8,53323,9.69,72678.3,-13.93,-40.15,-40.41,0,*6D
1519275926.06,53324,9.63,72676.8,-13.93,-40.21,-40.41,0,*6D
1519275927.33,53325,9.69,72676.8,-13.95,-40.47,-40.59,0,*63
1519275928.63,53326,9.69,72676.5,-13.95,-40.41,-40.59,0,*66
1519275929.91,53327,9.69,72676.0,-13.95,-40.21,-40.29,0,*66
1519275931.2,53328,9.63,72674.5,-13.95,-40.21,-40.29,0,*69
1519275932.43,53329,9.63,72672.8,-13.93,-40.21,-40.35,0,*63
1519275933.66,53330,9.69,72678.5,-13.93,-40.15,-40.35,0,*6C
1519275934.95,53331,9.63,72672.0,-13.95,-40.21,-40.41,0,*6F
1519275936.24,53332,9.63,72674.8,-13.95,-40.21,-40.41,0,*6C
1519275937.45,53333,9.69,72678.0,-13.99,-40.35,-40.47,0,*62
1519275938.74,53334,9.63,72672.3,-13.95,-40.21,-40.41,0,*6A
1519275940.0,53335,9.69,72676.3,-13.93,-40.15,-40.41,0,*6A
1519275941.25,53336,9.63,72672.8,-13.93,-40.15,-40.41,0,*69
1519275942.54,53337,9.69,72678.5,-13.95,-40.29,-40.41,0,*61
1519275943.75,53338,9.69,72680.0,-13.99,-40.53,-40.73,0,*6E
1519275945.05,53339,9.63,72672.8,-13.95,-40.41,-40.59,0,*68
1519275946.32,53340,9.63,72672.5,-13.95,-40.29,-40.65,0,*67
1519275947.62,53341,9.69,72676.0,-13.95,-40.09,-40.41,0,*62
1519275948.91,53342,9.69,72676.5,-13.95,-40.21,-40.41,0,*6B
1519275950.17,53343,9.63,72674.3,-13.95,-40.29,-40.47,0,*64
1519275951.46,53344,9.69,72674.8,-13.95,-40.29,-40.59,0,*6C
1519275952.7,53345,9.63,72676.3,-13.99,-40.29,-40.47,0,*6E
1519275953.95,53346,9.69,72678.5,-13.99,-40.41,-40.53,0,*66
1519275955.21,53347,9.63,72676.5,-13.95,-40.21,-40.47,0,*68
1519275956.42,53348,9.63,72676.8,-13.99,-40.35,-40.47,0,*6E
1519275957.64,53349,9.69,72678.0,-13.99,-40.35,-40.65,0,*6F
1519275958.85,53350,9.63,72676.0,-13.99,-40.47,-40.65,0,*62
1519275960.09,53351,9.63,72674.5,-13.95,-40.47,-40.65,0,*6F
1519275961.33,53352,9.63,72672.8,-13.99,-40.29,-40.35,0,*6D
1519275962.59,53353,9.63,72674.8,-13.95,-40.21,-40.47,0,*6D
1519275963.81,53354,9.69,72678.5,-13.99,-40.47,-40.65,0,*66
1519275965.05,53355,9.63,72676.0,-13.99,-40.29,-40.65,0,*6F
1519275966.31,53356,9.69,72676.5,-13.95,-40.21,-40.47,0,*68
1519275967.54,53357,9.63,72674.3,-13.99,-40.29,-40.47,0,*6D
1519275968.78,53358,9.69,72678.8,-13.99,-40.29,-40.47,0,*62
1519275970.0,53359,9.63,72676.8,-13.99,-40.35,-40.53,0,*6B
1519275971.26,53360,9.69,72676.8,-13.95,-40.29,-40.47,0,*65
1519275972.48,53361,9.69,72676.0,-13.99,-40.47,-40.73,0,*67
1519275973.69,53362,9.63,72672.5,-13.99,-40.35,-40.65,0,*66
1519275974.91,53363,9.69,72678.0,-13.99,-40.47,-40.65,0,*62
1519275976.18,53364,9.63,72676.8,-13.95,-40.41,-40.65,0,*6F
1519275977.4,53365,9.69,72676.8,-13.99,-40.47,-40.65,0,*64
1519275978.64,53366,9.69,72678.0,-14.01,-40.35,-40.53,0,*61
1519275979.88,53367,9.63,72676.0,-14.01,-40.47,-40.53,0,*65
1519275981.12,53368,9.63,72674.8,-14.01,-40.35,-40.53,0,*6F
1519275982.34,53369,9.69,72680.8,-13.99,-40.47,-40.73,0,*6F
1519275983.58,53370,9.69,72678.8,-14.01,-40.47,-40.65,0,*66
1519275984.82,53371,9.63,72676.0,-14.01,-40.47,-40.65,0,*67
1519275986.06,53372,9.63,72676.3,-14.01,-40.35,-40.65,0,*61
1519275987.32,53373,9.63,72676.8,-14.01,-40.29,-40.35,0,*68
1519275988.59,53374,9.63,72672.8,-14.01,-40.29,-40.53,0,*6F
1519275989.83,53375,9.63,72678.3,-14.01,-40.35,-40.53,0,*63
1519275991.09,53376,9.63,72676.8,-14.03,-40.59,-40.79,0,*60
1519275992.3,53377,9.69,72676.5,-14.03,-40.35,-40.53,0,*63
1519275993.57,53378,9.63,72676.3,-14.01,-40.29,-40.53,0,*63
1519275994.82,53379,9.63,72676.8,-14.01,-40.53,-40.79,0,*67
1519275996.06,53380,9.63,72672.3,-14.01,-40.47,-40.73,0,*6E
1519275997.31,53381,9.69,72676.5,-14.01,-40.35,-40.53,0,*68
1519275998.55,53382,9.63,72678.0,-14.03,-40.35,-40.59,0,*63
1519275999.81,53383,9.63,72674.0,-14.01,-40.29,-40.53,0,*67
1519276001.05,53384,9.63,72674.5,-14.01,-40.35,-40.73,0,*6F
1519276002.29,53385,9.69,72676.3,-14.01,-40.47,-40.65,0,*6C
1519276003.56,53386,9.69,72678.0,-14.01,-40.29,-40.53,0,*62
1519276004.8,53387,9.63,72678.8,-14.01,-40.35,-40.65,0,*6B
1519276006.04,53388,9.63,72676.5,-14.01,-40.47,-40.73,0,*66
1519276007.3,53389,9.63,72676.0,-14.03,-40.41,-40.79,0,*69
1519276008.57,53390,9.63,72678.0,-14.01,-40.29,-40.53,0,*65
1519276009.81,53391,9.69,72678.0,-14.03,-40.35,-40.41,0,*68
1519276011.02,53392,9.63,72672.5,-14.03,-40.35,-40.35,0,*68
1519276012.29,53393,9.69,72676.3,-14.03,-40.41,-40.59,0,*60
1519276013.52,53394,9.63,72676.5,-14.03,-40.35,-40.59,0,*64
1519276014.79,53395,9.63,72674.5,-14.03,-40.41,-40.59,0,*66
1519276016.06,53396,9.69,72676.0,-14.03,-40.41,-40.79,0,*67
1519276017.3,53397,9.69,72674.8,-14.03,-40.41,-40.73,0,*6C
1519276018.53,53398,9.63,72676.5,-14.03,-40.53,-40.79,0,*6A
1519276019.77,53399,9.63,72672.8,-14.03,-40.41,-40.73,0,*62
1519276021.04,53400,9.63,72676.0,-14.03,-40.41,-40.59,0,*6D
1519276022.3,53401,9.63,72674.5,-14.05,-40.59,-40.73,0,*6B
1519276023.57,53402,9.63,72674.5,-14.05,-40.53,-40.59,0,*6A
1519276024.86,53403,9.63,72676.8,-14.05,-40.21,-40.21,0,*61
1519276026.16,53404,9.69,72678.5,-14.05,-40.41,-40.59,0,*6F
1519276027.46,53405,9.63,72676.3,-14.05,-40.41,-40.59,0,*6E
1519276028.72,53406,9.63,72672.5,-14.05,-40.59,-40.73,0,*6C
1519276029.97,53407,9.63,72678.3,-14.05,-40.35,-40.53,0,*65
1519276031.21,53408,9.69,72682.5,-14.05,-40.35,-40.53,0,*6A
1519276032.48,53409,9.63,72674.8,-14.05,-40.35,-40.59,0,*61
1519276033.75,53410,9.63,72676.0,-14.05,-40.41,-40.53,0,*60
1519276035.0,53411,9.69,72676.3,-14.05,-40.35,-40.53,0,*62
1519276036.25,53412,9.63,72676.0,-14.05,-40.15,-40.35,0,*63
1519276037.51,53413,9.63,72674.5,-14.05,-40.21,-40.53,0,*65
1519276038.76,53414,9.63,72676.8,-14.05,-40.35,-40.53,0,*67
1519276040.06,53415,9.63,72676.8,-14.05,-40.41,-40.59,0,*6F
1519276041.29,53416,9.63,72676.5,-14.05,-40.35,-40.35,0,*65
1519276042.54,53417,9.69,72678.0,-14.05,-40.15,-40.35,0,*66
1519276043.84,53418,9.63,72678.5,-14.05,-40.21,-40.41,0,*6D
1519276045.09,53419,9.63,72678.3,-14.05,-40.21,-40.35,0,*6F
1519276046.35,53420,9.63,72676.5,-14.05,-40.21,-40.35,0,*65
1519276047.6,53421,9.63,72678.8,-14.05,-40.35,-40.53,0,*61
1519276048.87,53422,9.69,72676.5,-14.05,-40.41,-40.53,0,*61
1519276050.11,53423,9.69,72676.3,-14.05,-40.35,-40.35,0,*63
1519276051.39,53424,9.69,72678.5,-14.05,-40.15,-40.21,0,*63
1519276052.68,53425,9.63,72676.3,-14.05,-40.21,-40.41,0,*63
1519276053.97,53426,9.63,72678.5,-14.05,-40.21,-40.41,0,*60
1519276055.23,53427,9.63,72678.5,-14.05,-40.21,-40.35,0,*62
1519276056.49,53428,9.63,72678.5,-14.05,-40.21,-40.35,0,*6D
1519276057.75,53429,9.69,72678.5,-14.05,-40.21,-40.35,0,*6C
1519276059.01,53430,9.63,72678.3,-14.05,-40.21,-40.53,0,*64
1519276060.31,53431,9.63,72676.0,-14.05,-40.41,-40.59,0,*69
1519276061.55,53432,9.63,72676.0,-14.05,-40.35,-40.35,0,*63
1519276062.81,53433,9.63,72674.3,-14.05,-40.21,-40.35,0,*67
1519276064.07,53434,9.63,72674.5,-14.05,-40.21,-40.53,0,*60
1519276065.32,53435,9.69,72678.0,-14.05,-40.03,-40.15,0,*63
1519276066.58,53436,9.63,72672.5,-14.05,-40.21,-40.53,0,*62
1519276067.85,53437,9.63,72672.8,-14.05,-40.21,-40.53,0,*63
1519276069.1,53438,9.63,72674.8,-14.05,-40.15,-40.35,0,*6B
1519276070.39,53439,9.63,72674.3,-14.05,-40.21,-40.41,0,*6E
1519276071.68,53440,9.63,72676.8,-14.05,-40.21,-40.59,0,*69
1519276072.92,53441,9.63,72678.8,-14.05,-40.35,-40.53,0,*67
1519276074.19,53442,9.63,72674.8,-14.05,-40.35,-40.41,0,*67
1519276075.48,53443,9.63,72676.3,-14.05,-40.21,-40.41,0,*63
1519276076.75,53444,9.63,72676.5,-14.05,-39.97,-40.15,0,*66
1519276078.0,53445,9.63,72676.0,-14.05,-40.15,-40.15,0,*63
1519276079.26,53446,9.63,72676.3,-14.05,-40.21,-40.35,0,*65
1519276080.55,53447,9.63,72676.8,-14.05,-40.21,-40.41,0,*67
1519276081.82,53448,9.63,72674.8,-14.05,-40.03,-40.21,0,*6E
1519276083.07,53449,9.63,72676.8,-14.05,-40.15,-40.35,0,*6D
1519276084.32,53450,9.63,72676.5,-14.05,-40.15,-40.35,0,*65
1519276085.6,53451,9.63,72676.5,-14.05,-40.15,-40.21,0,*61
1519276086.86,53452,9.63,72676.0,-14.05,-40.21,-40.35,0,*60
1519276088.12,53453,9.63,72678.3,-14.05,-40.21,-40.53,0,*61
1519276089.41,53454,9.63,72678.5,-14.05,-40.21,-40.41,0,*65
1519276090.71,53455,9.63,72676.3,-14.05,-40.41,-40.59,0,*6B
1519276091.95,53456,9.63,72672.5,-14.05,-40.35,-40.53,0,*61
1519276093.25,53457,9.63,72676.0,-14.05,-40.21,-40.41,0,*66
1519276094.51,53458,9.69,72678.0,-14.05,-40.21,-40.53,0,*6A
1519276095.78,53459,9.63,72676.0,-14.05,-40.35,-40.59,0,*64
1519276097.05,53460,9.63,72676.8,-14.05,-40.35,-40.41,0,*67
1519276098.32,53461,9.63,72676.5,-14.05,-40.41,-40.73,0,*64
1519276099.62,53462,9.63,72676.5,-14.05,-40.41,-40.59,0,*6F
1519276100.89,53463,9.63,72676.5,-14.05,-40.35,-40.59,0,*6D
1519276102.16,53464,9.63,72678.0,-14.05,-40.35,-40.59,0,*6A